This is the latest recevied weather packets stored in our database for station/object SV9TNF-1. If no packets are shown the sender has not sent any weather packets the latest 10 day(s).
| Time | Temp. | Humidity | Pressure | Rain* | Wind** | Luminosity | Snow |
|---|---|---|---|---|---|---|---|
| 1777341068 | 14.44° C | 86% | 1003.4 hPa | 0 mm | 1.79 m/s, 112° | - | - |
| 1777340768 | 13.89° C | 87% | 1003.4 hPa | 0 mm | 1.34 m/s, 176° | - | - |
| 1777340468 | 14.44° C | 87% | 1003.4 hPa | 0 mm | 0.45 m/s, 135° | - | - |
| 1777340168 | 14.44° C | 89% | 1003.4 hPa | 0 mm | 0 m/s | - | - |
| 1777339868 | 14.44° C | 87% | 1003.4 hPa | 0 mm | 0 m/s | - | - |
| 1777339567 | 14.44° C | 87% | 1003.4 hPa | 0 mm | 0 m/s | - | - |
| 1777339268 | 14.44° C | 86% | 1003.4 hPa | 0 mm | 0 m/s | - | - |
| 1777338967 | 14.44° C | 85% | 1003.4 hPa | 0 mm | 0 m/s | - | - |
| 1777338667 | 14.44° C | 84% | 1003.4 hPa | 0 mm | 0 m/s | - | - |
| 1777338367 | 14.44° C | 84% | 1003.4 hPa | 0 mm | 0 m/s | - | - |
| 1777338067 | 14.44° C | 83% | 1003.4 hPa | 0 mm | 0 m/s | - | - |
| 1777337767 | 14.44° C | 83% | 1003.4 hPa | 0 mm | 0 m/s | - | - |
| 1777337468 | 15° C | 83% | 1003.4 hPa | 0 mm | 3.58 m/s, 56° | - | - |
| 1777337167 | 15° C | 81% | 1003.7 hPa | 0 mm | 4.47 m/s, 316° | - | - |
| 1777336867 | 15° C | 79% | 1003.7 hPa | 0 mm | 0 m/s | - | - |
| 1777336566 | 15.56° C | 78% | 1003.4 hPa | 0 mm | 1.79 m/s, 123° | - | - |
| 1777336267 | 15° C | 76% | 1003.4 hPa | 0 mm | 3.13 m/s, 15° | - | - |
| 1777335966 | 15.56° C | 77% | 1003.4 hPa | 0 mm | 4.47 m/s, 339° | - | - |
| 1777335666 | 15.56° C | 78% | 1003.7 hPa | 0 mm | 4.47 m/s, 353° | - | - |
| 1777335366 | 15° C | 80% | 1003.7 hPa | 0 mm | 4.02 m/s, 342° | - | - |
| 1777335066 | 15° C | 78% | 1003.7 hPa | 0 mm | 4.02 m/s, 33° | - | - |
| 1777334766 | 15.56° C | 78% | 1003.7 hPa | 0 mm | 1.79 m/s, 64° | - | - |
| 1777334467 | 15° C | 78% | 1003.7 hPa | 0 mm | 4.02 m/s, 332° | - | - |
* Rain latest hour (hover to see other rain measurements)
** Current wind speed in m/s (hover to see current wind gust speed)